Little Falls, MN

6:04 PM CDT on May 21, 2018 (GMT -0500)
Little Falls-Morrison County

Weather History for KLXL - March, 2014

Change the Weather History Date:

Saturday, March 22, 2014

  Actual Average Record
Temperature  
Mean Temperature 10 °F -  
Max Temperature 17 °F 42 °F 75 °F (1945)
Min Temperature 3 °F 20 °F -19 °F (1965)
Degree Days  
Heating Degree Days 55    
Moisture  
Dew Point -2 °F    
Average Humidity 60    
Maximum Humidity 72    
Minimum Humidity 49    
Precipitation  
Precipitation 0.00 in - - ()
Sea Level Pressure  
Sea Level Pressure 30.39 in    
Wind  
Wind Speed 9 mph (NW)    
Max Wind Speed 14 mph    
Max Gust Speed 21 mph    
Visibility 10 miles    
Events      
Averages and records for this station are not official NWS values.
T = Trace of Precipitation, MM = Missing Value Source: NWS Daily Summary

Daily Weather History Graph

Daily Weather History Graph

Search for Another Location

Airport or City:

Astronomy

Mar. 22, 2014 Rise Set
Actual Time 7:16 AM CDT 7:32 PM CDT
Civil Twilight 6:46 AM CDT 8:02 PM CDT
Nautical Twilight 6:11 AM CDT 8:37 PM CDT
Astronomical Twilight 5:35 AM CDT 9:14 PM CDT
Moon 1:07 AM CDT (3/22) 10:45 AM CDT (3/22)
Length of Visible Light 13h 15m
Length of Day
12h 16m
Waning Gibbous, 65% of the Moon is Illuminated
Mar 22
Waning Gibbous
Mar 23
Last Quarter
Mar 30
New
Apr 7
First Quarter
Apr 15
Full

Hourly Weather History & Observations

Time (CDT) Temp. Windchill Dew Point Humidity Pressure Visibility Wind Dir Wind Speed Gust Speed Precip Events Conditions
12:05 AM 10.4 °F -3.3 °F 1.4 °F 67% 30.22 in 10.0 mi NNW 10.4 mph 18.4 mph N/A   Clear
12:25 AM 10.4 °F -4.1 °F 1.4 °F 67% 30.23 in 10.0 mi NW 11.5 mph - N/A   Clear
12:45 AM 10.4 °F -3.3 °F 1.4 °F 67% 30.24 in 10.0 mi NW 10.4 mph 20.7 mph N/A   Clear
1:05 AM 8.6 °F -4.7 °F -0.4 °F 67% 30.25 in 10.0 mi NW 9.2 mph 16.1 mph N/A   Clear
1:25 AM 8.6 °F -2.6 °F -0.4 °F 67% 30.25 in 10.0 mi NW 6.9 mph 18.4 mph N/A   Clear
1:45 AM 8.6 °F -4.7 °F -0.4 °F 67% 30.26 in 10.0 mi NNW 9.2 mph 19.6 mph N/A   Clear
2:05 AM 8.6 °F -5.5 °F -0.4 °F 67% 30.27 in 10.0 mi NW 10.4 mph 17.3 mph N/A   Clear
2:25 AM 6.8 °F -6.9 °F -2.2 °F 67% 30.28 in 10.0 mi NNW 9.2 mph 19.6 mph N/A   Clear
2:45 AM 6.8 °F -7.8 °F -2.2 °F 67% 30.29 in 10.0 mi NNW 10.4 mph 18.4 mph N/A   Clear
3:05 AM 6.8 °F -8.6 °F -2.2 °F 67% 30.29 in 10.0 mi NW 11.5 mph - N/A   Clear
3:25 AM 5.0 °F -10.8 °F -2.2 °F 72% 30.29 in 10.0 mi NW 11.5 mph 20.7 mph N/A   Clear
3:45 AM 5.0 °F -6.9 °F -2.2 °F 72% 30.30 in 10.0 mi NW 6.9 mph 16.1 mph N/A   Clear
4:05 AM 5.0 °F -10.0 °F -4.0 °F 66% 30.30 in 10.0 mi NW 10.4 mph - N/A   Clear
4:25 AM 5.0 °F -9.1 °F -4.0 °F 66% 30.31 in 10.0 mi NW 9.2 mph - N/A   Clear
4:45 AM 5.0 °F -6.9 °F -4.0 °F 66% 30.31 in 10.0 mi NW 6.9 mph - N/A   Clear
5:05 AM 5.0 °F -10.0 °F -4.0 °F 66% 30.32 in 10.0 mi NNW 10.4 mph 18.4 mph N/A   Clear
5:25 AM 5.0 °F -8.1 °F -4.0 °F 66% 30.32 in 10.0 mi NNW 8.1 mph - N/A   Clear
5:45 AM 5.0 °F -9.1 °F -4.0 °F 66% 30.33 in 10.0 mi NW 9.2 mph - N/A   Clear
6:05 AM 3.2 °F -11.3 °F -4.0 °F 72% 30.34 in 10.0 mi NW 9.2 mph - N/A   Clear
6:25 AM 3.2 °F -9.1 °F -5.8 °F 66% 30.35 in 10.0 mi NW 6.9 mph - N/A   Clear
6:45 AM 3.2 °F -7.8 °F -5.8 °F 66% 30.36 in 10.0 mi NNW 5.8 mph - N/A   Clear
7:05 AM 3.2 °F -9.1 °F -5.8 °F 66% 30.36 in 10.0 mi NW 6.9 mph - N/A   Clear
7:25 AM 3.2 °F -11.3 °F -5.8 °F 66% 30.37 in 10.0 mi NW 9.2 mph - N/A   Clear
7:45 AM 3.2 °F -10.3 °F -5.8 °F 66% 30.38 in 10.0 mi NW 8.1 mph - N/A   Clear
8:05 AM 3.2 °F -10.3 °F -5.8 °F 66% 30.39 in 10.0 mi NW 8.1 mph 17.3 mph N/A   Clear
8:25 AM 5.0 °F -10.0 °F -5.8 °F 61% 30.39 in 10.0 mi NW 10.4 mph - N/A   Clear
9:05 AM 5.0 °F -10.0 °F -5.8 °F 61% 30.41 in 10.0 mi NW 10.4 mph - N/A   Clear
9:25 AM 6.8 °F -5.9 °F -5.8 °F 56% 30.41 in 10.0 mi NW 8.1 mph 18.4 mph N/A   Clear
9:45 AM 6.8 °F -7.8 °F -5.8 °F 56% 30.42 in 10.0 mi NW 10.4 mph - N/A   Clear
10:05 AM 8.6 °F -6.3 °F -5.8 °F 52% 30.43 in 10.0 mi NW 11.5 mph 18.4 mph N/A   Clear
10:25 AM 8.6 °F -7.0 °F -5.8 °F 52% 30.43 in 10.0 mi WNW 12.7 mph 16.1 mph N/A   Clear
10:45 AM 8.6 °F -3.7 °F -4.0 °F 57% 30.44 in 10.0 mi NW 8.1 mph 17.3 mph N/A   Clear
11:05 AM 10.4 °F -4.1 °F -4.0 °F 52% 30.44 in 10.0 mi WNW 11.5 mph 16.1 mph N/A   Clear
11:25 AM 10.4 °F -1.5 °F -4.0 °F 52% 30.44 in 10.0 mi NW 8.1 mph - N/A   Clear
11:45 AM 10.4 °F -2.4 °F -4.0 °F 52% 30.44 in 10.0 mi WNW 9.2 mph - N/A   Clear
12:05 PM 10.4 °F -4.1 °F -4.0 °F 52% 30.44 in 10.0 mi NNW 11.5 mph 17.3 mph N/A   Clear
12:25 PM 12.2 °F -0.2 °F -2.2 °F 53% 30.44 in 10.0 mi NW 9.2 mph - N/A   Clear
12:45 PM 12.2 °F -1.0 °F -2.2 °F 53% 30.44 in 10.0 mi NW 10.4 mph - N/A   Clear
1:05 PM 14.0 °F 2.9 °F -2.2 °F 49% 30.44 in 10.0 mi WNW 8.1 mph - N/A   Clear
1:25 PM 14.0 °F 1.2 °F -2.2 °F 49% 30.44 in 10.0 mi NW 10.4 mph 19.6 mph N/A   Clear
1:45 PM 14.0 °F 0.5 °F -0.4 °F 53% 30.44 in 10.0 mi WNW 11.5 mph 18.4 mph N/A   Scattered Clouds
2:05 PM 15.8 °F 3.4 °F -0.4 °F 49% 30.43 in 10.0 mi NW 10.4 mph 20.7 mph N/A   Scattered Clouds
2:25 PM 15.8 °F 1.4 °F -0.4 °F 49% 30.43 in 10.0 mi WNW 13.8 mph 20.7 mph N/A   Scattered Clouds
2:45 PM 15.8 °F 5.1 °F -0.4 °F 49% 30.42 in 10.0 mi NW 8.1 mph - N/A   Scattered Clouds
3:05 PM 15.8 °F 2.1 °F 1.4 °F 53% 30.42 in 10.0 mi WNW 12.7 mph 19.6 mph N/A   Mostly Cloudy
3:25 PM 15.8 °F 3.4 °F 1.4 °F 53% 30.42 in 10.0 mi WNW 10.4 mph 17.3 mph N/A   Scattered Clouds
3:45 PM 17.6 °F 5.7 °F 1.4 °F 49% 30.42 in 10.0 mi NNW 10.4 mph 20.7 mph N/A   Mostly Cloudy
4:05 PM 17.6 °F 5.7 °F 1.4 °F 49% 30.41 in 10.0 mi NW 10.4 mph - N/A   Mostly Cloudy
4:25 PM 17.6 °F 6.4 °F 1.4 °F 49% 30.41 in 10.0 mi NW 9.2 mph - N/A   Mostly Cloudy
4:45 PM 17.6 °F 5.7 °F 1.4 °F 49% 30.42 in 10.0 mi NW 10.4 mph 17.3 mph N/A   Mostly Cloudy
5:05 PM 17.6 °F 5.7 °F 1.4 °F 49% 30.42 in 10.0 mi WNW 10.4 mph 17.3 mph N/A   Mostly Cloudy
5:25 PM 17.6 °F 8.2 °F 1.4 °F 49% 30.42 in 10.0 mi NW 6.9 mph 19.6 mph N/A   Scattered Clouds
5:45 PM 15.8 °F 6.1 °F 1.4 °F 53% 30.43 in 10.0 mi NNW 6.9 mph 18.4 mph N/A   Scattered Clouds
6:05 PM 15.8 °F 5.1 °F 1.4 °F 53% 30.44 in 10.0 mi WNW 8.1 mph 17.3 mph N/A   Scattered Clouds
6:25 PM 15.8 °F 2.7 °F 1.4 °F 53% 30.44 in 10.0 mi WNW 11.5 mph 17.3 mph N/A   Scattered Clouds
6:45 PM 15.8 °F 2.7 °F 1.4 °F 53% 30.44 in 10.0 mi WNW 11.5 mph 16.1 mph N/A   Scattered Clouds
7:05 PM 15.8 °F 3.4 °F 1.4 °F 53% 30.45 in 10.0 mi WNW 10.4 mph - N/A   Scattered Clouds
7:25 PM 14.0 °F 3.9 °F 1.4 °F 57% 30.45 in 10.0 mi WNW 6.9 mph - N/A   Scattered Clouds
7:45 PM 12.2 °F 1.7 °F 1.4 °F 62% 30.45 in 10.0 mi WNW 6.9 mph - N/A   Scattered Clouds
8:05 PM 12.2 °F 0.7 °F 1.4 °F 62% 30.46 in 10.0 mi WNW 8.1 mph - N/A   Scattered Clouds
8:25 PM 12.2 °F 1.7 °F 1.4 °F 62% 30.47 in 10.0 mi WNW 6.9 mph - N/A   Scattered Clouds
8:45 PM 12.2 °F 2.9 °F 1.4 °F 62% 30.48 in 10.0 mi WNW 5.8 mph - N/A   Scattered Clouds
9:05 PM 12.2 °F 2.9 °F 1.4 °F 62% 30.48 in 10.0 mi WNW 5.8 mph - N/A   Clear
9:25 PM 10.4 °F -0.4 °F -0.4 °F 62% 30.48 in 10.0 mi WNW 6.9 mph - N/A   Clear
9:45 PM 10.4 °F -1.5 °F -0.4 °F 62% 30.48 in 10.0 mi NW 8.1 mph - N/A   Clear
10:05 PM 10.4 °F -0.4 °F -0.4 °F 62% 30.48 in 10.0 mi NW 6.9 mph - N/A   Clear
10:25 PM 8.6 °F 0.1 °F -0.4 °F 67% 30.49 in 10.0 mi NW 4.6 mph - N/A   Clear
10:45 PM 8.6 °F - -0.4 °F 67% 30.49 in 10.0 mi Calm Calm - N/A   Clear
11:05 PM 8.6 °F 2.0 °F -0.4 °F 67% 30.49 in 10.0 mi NW 3.5 mph - N/A   Clear
11:25 PM 6.8 °F - -0.4 °F 72% 30.49 in 10.0 mi Calm Calm - N/A   Clear
11:45 PM 6.8 °F - -2.2 °F 67% 30.50 in 10.0 mi Calm Calm - N/A   Clear